Torna al catalogo

THORAD DELTA 1 DEB

AttivoSSO
NORAD 42599·DEBRIS·🇺🇸 United States

Lanciato Nov 15, 1974 da Vandenberg Space Force Base

Loading…

Prossimi Passaggi (prossime 24 ore)

TLE

AggiornatoSource: Space-Track

Epoca: Sep 14, 2026, 13:38 UTC

1 42599U 74089FQ  26257.56860334  .00000369  00000-0  22683-2 0  9995
2 42599 101.5442 356.0289 0050641 303.7262  67.6159 12.63423233577822

Traccia THORAD DELTA 1 DEB in tempo reale con AllMySat

Download on the App Store